Location: Pensacola
(30.4142°N, 87.2155°W)
Time: 15:46:58
(UTC-06:00)

Cosmos 1741 Rocket - Pass Details

Date: 17 December 2023
Orbit: 760 x 780 km, 74.0° (Epoch: 29 February)

Event Time Altitude Azimuth Distance (km) Brightness Sun altitude
Rises 17:35:37 0° 343° (NNW) 3,266 7.2 -9.7°
Reaches altitude 10° 17:38:00 10° 343° (NNW) 2,335 6.5 -10.2°
Maximum altitude 17:43:20 87° 255° (WSW) 785 4.1 -11.2°
Drops below altitude 10° 17:48:37 10° 167° (SSE) 2,319 6.6 -12.3°
Sets 17:50:59 0° 166° (SSE) 3,241 7.3 -12.8°
